FW7889 Weather Reports


time (UTC)temp
C
wind
direction
speed
KPH
gust
KPH
rain 1hr
cm
rain 24hr
cm
rain mn
cm
humidity
%
barometer
mb
20260509070211 -1 286 0.0 1.6 0.00 0.00 0.00 98 1065.3
20260509065209 -1 295 1.6 1.6 0.00 0.00 0.00 98 1065.5
20260509064204 -1 293 1.6 1.6 0.00 0.00 0.00 98 1065.4
20260509063203 -1 290 1.6 1.6 0.00 0.00 0.00 98 1065.4
20260509062203 -1 288 1.6 1.6 0.00 0.00 0.00 98 1065.5
20260509061203 -1 302 1.6 1.6 0.00 0.00 0.00 98 1065.6
20260509060203 -1 297 1.6 1.6 0.00 0.00 0.00 97 1065.9
20260509055200 -1 287 1.6 1.6 0.00 0.00 0.00 97 1065.9
20260509054200 -1 286 1.6 1.6 0.00 0.00 0.00 97 1066.2
20260509053155 -1 281 1.6 1.6 0.00 0.00 0.00 96 1066.1
20260509052150 -1 282 0.0 1.6 0.00 0.00 0.00 96 1066.0
20260509051145 -1 280 0.0 0.0 0.00 0.00 0.00 96 1066.0
20260509050144 -1 301 1.6 1.6 0.00 0.00 0.00 96 1066.4
20260509045144 -1 290 1.6 1.6 0.00 0.00 0.00 95 1066.4
20260509044144 -1 281 0.0 0.0 0.00 0.00 0.00 95 1066.2
20260509043142 -1 281 0.0 0.0 0.00 0.00 0.00 95 1066.4
20260509042141 -1 282 1.6 1.6 0.00 0.00 0.00 94 1066.2
20260509041135 -1 281 0.0 0.0 0.00 0.00 0.00 94 1066.1
20260509040130 -1 279 0.0 0.0 0.00 0.00 0.00 94 1065.9
20260509035129 -1 275 0.0 0.0 0.00 0.00 0.00 94 1065.8
20260509034124 -1 289 1.6 1.6 0.00 0.00 0.00 93 1065.8
20260509033124 -1 280 0.0 0.0 0.00 0.00 0.00 93 1066.0
20260509032124 0 285 0.0 0.0 0.00 0.00 0.00 92 1066.0
20260509031119 0 285 0.0 0.0 0.00 0.00 0.00 92 1066.4
20260509030120 0 288 1.6 1.6 0.00 0.00 0.00 91 1066.1
20260509025117 0 288 1.6 1.6 0.00 0.00 0.00 90 1066.4
20260509024115 0 288 1.6 1.6 0.00 0.00 0.00 89 1066.5
20260509023110 0 290 1.6 1.6 0.00 0.00 0.00 86 1066.2
20260509022110 0 287 1.6 1.6 0.00 0.00 0.00 87 1066.0
20260509021109 0 293 1.6 1.6 0.00 0.00 0.00 85 1066.1
20260509020104 1 293 1.6 1.6 0.00 0.00 0.00 82 1066.0
20260509015100 1 284 1.6 1.6 0.00 0.00 0.00 79 1065.8
20260509014058 1 285 0.0 1.6 0.00 0.00 0.00 79 1065.7
20260509013057 1 291 1.6 1.6 0.00 0.00 0.00 72 1065.5
20260509012056 2 285 0.0 0.0 0.00 0.00 0.00 75 1065.2
20260509011056 2 286 1.6 1.6 0.00 0.00 0.00 75 1065.2
20260509010056 3 285 1.6 1.6 0.00 0.00 0.00 71 1065.3
20260509005055 3 282 1.6 1.6 0.00 0.00 0.00 69 1065.2
20260509004055 3 282 0.0 1.6 0.00 0.00 0.00 66 1065.3
20260509003050 4 267 0.0 1.6 0.00 0.00 0.00 68 1065.1
20260509002045 5 268 0.0 1.6 0.00 0.00 0.00 68 1065.2
20260509001043 6 270 0.0 0.0 0.00 0.00 0.00 57 1064.9
20260509000044 7 267 0.0 1.6 0.00 0.00 0.00 49 1065.0
20260508235044 7 262 0.0 0.0 0.00 0.00 0.00 48 1065.0
20260508234038 7 247 3.2 3.2 0.00 0.00 0.00 46 1064.7
20260508233034 8 230 9.7 11.3 0.00 0.00 0.00 46 1064.9
20260508232034 8 242 1.6 3.2 0.00 0.00 0.00 47 1064.8
20260508231034 8 277 3.2 3.2 0.00 0.00 0.00 45 1064.8
20260508230033 8 245 3.2 3.2 0.00 0.00 0.00 45 1064.9
20260508225033 8 264 4.8 4.8 0.00 0.00 0.00 45 1065.2
20260508224028 8 256 8.0 9.7 0.00 0.00 0.00 45 1064.7
20260508223023 8 306 4.8 4.8 0.00 0.00 0.00 45 1064.7
20260508222023 8 237 3.2 4.8 0.00 0.00 0.00 46 1064.8
20260508221021 9 299 6.4 9.7 0.00 0.00 0.00 45 1064.6
20260508220020 9 236 8.0 14.5 0.00 0.00 0.00 45 1064.6
20260508215020 9 226 4.8 4.8 0.00 0.00 0.00 46 1064.5
20260508214019 9 314 8.0 9.7 0.00 0.00 0.00 45 1064.4
20260508213018 9 269 1.6 1.6 0.00 0.00 0.00 46 1064.5
20260508212017 8 310 3.2 3.2 0.00 0.00 0.00 47 1064.3
20260508211015 9 295 6.4 8.0 0.00 0.00 0.00 48 1064.5
20260508210010 9 316 6.4 8.0 0.00 0.00 0.00 48 1064.7
20260508205008 9 281 0.0 1.6 0.00 0.00 0.00 48 1064.5
20260508204007 8 250 6.4 9.7 0.00 0.00 0.00 49 1064.6
20260508203005 8 248 4.8 4.8 0.00 0.00 0.00 49 1064.6
20260508202005 9 254 4.8 8.0 0.00 0.00 0.00 47 1064.3
20260508201004 8 264 8.0 9.7 0.00 0.00 0.00 67 1064.3
20260508200002 8 250 11.3 14.5 0.00 0.00 0.00 65 1064.7
20260508195001 8 279 6.4 9.7 0.00 0.00 0.00 60 1064.6
20260508193956 8 314 3.2 3.2 0.00 0.00 0.00 51 1064.5
20260508192955 7 240 8.0 9.7 0.00 0.00 0.00 59 1064.8
20260508191954 7 244 9.7 11.3 0.00 0.00 0.00 58 1064.7
20260508190954 7 246 6.4 8.0 0.00 0.00 0.00 61 1064.5
20260508185953 7 221 9.7 12.9 0.00 0.00 0.00 65 1064.7
20260508184948 7 221 6.4 9.7 0.00 0.00 0.00 58 1064.8
20260508183948 8 234 8.0 11.3 0.00 0.00 0.00 52 1064.7
20260508182945 8 276 4.8 8.0 0.00 0.00 0.00 53 1064.8
20260508181943 8 275 6.4 8.0 0.00 0.00 0.00 52 1064.6
20260508180938 7 228 4.8 4.8 0.00 0.00 0.00 54 1064.7
20260508175936 7 297 1.6 1.6 0.00 0.00 0.00 54 1064.6
20260508174936 8 277 4.8 4.8 0.00 0.00 0.00 52 1064.6
20260508173936 7 255 4.8 4.8 0.00 0.00 0.00 54 1064.5
20260508172934 7 274 8.0 9.7 0.00 0.00 0.00 55 1064.5
20260508171934 8 305 4.8 4.8 0.00 0.00 0.00 55 1064.6
20260508170933 7 254 6.4 8.0 0.00 0.00 0.00 58 1064.8
20260508165933 7 304 0.0 1.6 0.00 0.00 0.00 57 1064.9
20260508164932 7 237 6.4 11.3 0.00 0.00 0.00 57 1064.8
20260508163933 8 216 12.9 20.9 0.00 0.00 0.00 57 1064.8
20260508162931 8 148 3.2 3.2 0.00 0.00 0.00 57 1064.7
20260508161926 8 188 8.0 9.7 0.00 0.00 0.00 57 1064.9
20260508160926 7 298 3.2 4.8 0.00 0.00 0.00 59 1064.7
20260508155926 7 297 1.6 1.6 0.00 0.00 0.00 57 1065.0
20260508154926 7 256 6.4 9.7 0.00 0.00 0.00 58 1065.0
20260508153926 6 251 4.8 4.8 0.00 0.00 0.00 60 1065.0
20260508152925 6 330 4.8 8.0 0.00 0.00 0.00 60 1065.0
20260508151924 6 292 4.8 4.8 0.00 0.00 0.00 61 1064.8
20260508150923 6 250 4.8 4.8 0.00 0.00 0.00 61 1064.8
20260508145921 6 289 3.2 3.2 0.00 0.00 0.00 59 1064.7
20260508144921 6 231 3.2 3.2 0.00 0.00 0.00 58 1064.4
20260508143916 6 234 4.8 4.8 0.00 0.00 0.00 58 1064.5
20260508142915 6 296 6.4 8.0 0.00 0.00 0.00 59 1064.5
20260508141915 6 271 1.6 1.6 0.00 0.00 0.00 62 1064.7
20260508140915 6 332 6.4 9.7 0.00 0.00 0.00 61 1064.6
20260508135913 6 326 6.4 9.7 0.00 0.00 0.00 62 1064.3
20260508134912 6 245 3.2 4.8 0.00 0.00 0.00 63 1064.4
20260508133911 6 283 6.4 8.0 0.00 0.00 0.00 63 1064.2
20260508132906 6 283 0.0 1.6 0.00 0.00 0.00 65 1064.3
20260508131906 5 324 4.8 4.8 0.00 0.00 0.00 66 1064.2
20260508130905 5 279 8.0 9.7 0.00 0.00 0.00 65 1064.2
20260508125903 5 314 4.8 4.8 0.00 0.00 0.00 70 1064.6
20260508124904 5 314 4.8 4.8 0.00 0.00 0.00 71 1064.5
20260508123859 4 286 1.6 1.6 0.00 0.00 0.00 74 1064.4
20260508122859 4 232 8.0 9.7 0.00 0.00 0.00 76 1064.5
20260508121859 3 279 4.8 4.8 0.00 0.00 0.00 77 1064.5
20260508120854 3 309 1.6 3.2 0.00 0.00 0.00 78 1064.6
20260508115849 4 307 1.6 3.2 0.00 0.00 0.00 81 1064.7
20260508114849 3 289 1.6 1.6 0.00 0.00 0.00 82 1064.6
20260508113849 3 263 3.2 3.2 0.00 0.00 0.00 86 1064.9
20260508112849 3 238 8.0 11.3 0.00 0.00 0.00 86 1065.0
20260508111848 2 250 1.6 3.2 0.00 0.00 0.00 87 1065.0
20260508110843 2 251 3.2 3.2 0.00 0.00 0.00 88 1065.0
20260508105840 2 256 1.6 1.6 0.00 0.00 0.00 89 1064.9
20260508104840 2 249 3.2 4.8 0.00 0.00 0.00 91 1064.9
20260508103840 1 252 1.6 1.6 0.00 0.00 0.00 94 1064.7
20260508102840 1 256 1.6 1.6 0.00 0.00 0.00 96 1064.4
20260508101835 0 264 1.6 1.6 0.00 0.00 0.00 98 1064.7
20260508100830 0 277 1.6 1.6 0.00 0.00 0.00 98 1064.5
20260508095829 0 283 1.6 1.6 0.00 0.00 0.00 97 1064.6
20260508094824 0 265 1.6 1.6 0.00 0.00 0.00 97 1064.5
20260508093824 0 264 0.0 1.6 0.00 0.00 0.00 95 1064.5
20260508092819 1 259 1.6 1.6 0.00 0.00 0.00 94 1064.7
20260508091815 1 270 0.0 0.0 0.00 0.00 0.00 92 1064.3
20260508090815 2 259 1.6 1.6 0.00 0.00 0.00 90 1064.3
20260508085814 2 270 0.0 1.6 0.00 0.00 0.00 90 1064.5
20260508084813 2 248 1.6 1.6 0.00 0.00 0.00 90 1064.5
20260508083808 2 264 0.0 0.0 0.00 0.00 0.00 90 1064.5
20260508082805 2 259 0.0 0.0 0.00 0.00 0.00 89 1064.5
20260508081800 2 258 1.6 1.6 0.00 0.00 0.00 89 1064.2
20260508080759 2 259 1.6 1.6 0.00 0.00 0.00 89 1064.3
20260508075759 2 271 0.0 0.0 0.00 0.00 0.00 90 1064.3
20260508074754 1 262 1.6 1.6 0.00 0.00 0.00 92 1064.2
20260508073754 1 256 1.6 1.6 0.00 0.00 0.00 92 1063.9
20260508072753 1 271 0.0 0.0 0.00 0.00 0.00 92 1063.9
20260508071748 1 263 1.6 1.6 0.00 0.00 0.00 95 1064.2